Regional Weather Roundup
Issued by NWS Charleston, SC

Current Version | Previous Version | Graphics & Text | Print | Product List | Glossary On
Versions: 1 2 3 4 5 6 7 8 9 10 11 12 13 14 15 16 17 18 19 20 21 22 23 24 25 26 27 28 29 30 31 32 33 34 35 36 37 38 39 40 41 42 43 44 45 46 47 48 49 50
000
ASUS42 KCHS 312010
RWRCHS

REGIONAL WEATHER ROUNDUP
NATIONAL WEATHER SERVICE CHARLESTON SC
400 PM EDT THU JUL 31 2014

NOTE: "FAIR" INDICATES FEW OR NO CLOUDS BELOW 12,000 FEET WITH NO
SIGNIFICANT WEATHER AND/OR OBSTRUCTIONS TO VISIBILITY.

NOT ALL STATIONS ARE QUALITY CONTROLLED BY THE NATIONAL
WEATHER SERVICE. USE DATA WITH CAUTION...ESPECIALLY
DEWPOINT OBSERVATIONS.

SCZ027-030-031-034>040-042>050-312100-
...SOUTH CAROLINA...

CITY           SKY/WX    TMP DP  RH WIND       PRES   REMARKS
N CHARLESTON   TSTM      76  72  87 E3        30.05F FOG
WATERFRONT PRK   N/A     77 N/A N/A S6          N/A
FORT JOHNSON   NOT AVBL
MOUNT PLEASANT LGT RAIN  82  75  78 E12       30.03R
JOHNS ISLAND   HVY RAIN  73  70  88 NE10      30.05R VSB 0
PINOPOLIS        N/A     82  75  78 E7        29.96F
MONCKS CORNER    N/A     82  79  89 E5        30.04S HX  93
SUMMERVILLE    RAIN      73  73 100 CALM      30.06F
BEAUFORT MCAS  PTSUNNY   79  73  82 E9        30.02S
BEAUFORT ARPT  FAIR      79  75  89 NE18      30.01S
HILTON HEAD IS MOSUNNY   86  73  66 SE6       30.01S HX  93
GEORGETOWN     NOT AVBL
WALTERBORO     CLOUDY    79  77  94 E9        30.05S
ORANGEBURG     CLOUDY    77  70  79 E6        30.06S
BARNWELL       FAIR      79  70  73 E14       30.05S
AIKEN          LGT RAIN  72  72 100 NE5       30.09F
MANNING        CLOUDY    77 N/A N/A CALM      30.06F
KINGSTREE      NOT AVBL
COLUMBIA       LGT RAIN  82  71  69 E7        30.05F
SUMTER         TSTM      77  73  88 S12       30.06R
FLORENCE       HVY RAIN  78  69  73 E6        30.07S
MYRTLE BEACH   PTSUNNY   81  70  69 E10       30.07F
N MYRTLE BEACH LGT RAIN  82  70  66 E10G16    30.07F

$$

GAZ063-065-086>088-099>101-113>116-118-119-134-136>141-150-312100-
...GEORGIA...

CITY           SKY/WX    TMP DP  RH WIND       PRES   REMARKS
SAVANNAH ARPT  HVY RAIN  75  72  88 N17       30.00R VSB 1
HUNTER AAF     PTSUNNY   89  73  59 SE8       29.96F HX  97
FORT STEWART   PTSUNNY   88  74  62 NE8       29.96S HX  96
STATESBORO     NOT AVBL
SYLVANIA       DRIZZLE   74  72  93 CALM      30.03S
CLAXTON        FAIR      88  75  66 E7        29.98F HX  97
THOMSON        CLOUDY    74  74 100 CALM      30.11S
AUGUSTA-BUSH   CLOUDY    77  70  79 E6        30.02F
AUGUSTA-DANIEL CLOUDY    76  71  85 NE7       30.04F
SWAINSBORO     FAIR      86  75  70 E5        30.01R THUNDER HX  95
VIDALIA          N/A     81  73  78 NE7       29.99S
ALMA           PTSUNNY   95  59  30 SW7       29.95F HX  94
WAYCROSS       MOSUNNY   96  62  31 SW6       29.96F HX  97
JESUP          FAIR      97  63  32 SW5       29.96F HX  98
BRUNSWICK      MOSUNNY   91  66  43 SE10      29.98S HX  94
SAINT SIMONS   MOSUNNY   89  68  49 SE14      29.97F HX  93

$$

SCZ027-028-034-036>038-045-046-048>050-GAZ119-141-312100-
...LAKE AND SUPPLEMENTAL COASTAL OBSERVATIONS...

STATION/POSITION TIME  TEMP    WIND        PRES    WAVE   SWELL
                       AIR SEA DIR/SP/G            HT/PER HT/PER/DIR
                 (UTC) (F)     (DEG/KT/KT) (MB)    (FT/S) (FT/S/D)
UPR LAKE MARION  NOT AVBL
WINYAH BAY       1900   81      90/ 12     1018.0S
LAKE MURRAY      1900   82      70/  7/ 12 1017.3F
ACE BASIN NERRS  1900   78      20/  5     1017.0S
FORT PULASKI     2000   86     140/  9/ 13 1015.6S
SAPELO ISLAND    1900   88     140/  9     1016.0S

$$

ANZ835-935-AMZ111-154-330-350-352-354-374-450-454-472-312100-
...C-MAN AND BUOY OBSERVATIONS...

STATION/POSITION TIME  TEMP    WIND        PRES    WAVE   SWELL
                       AIR SEA DIR/SP/G            HT/PER HT/PER/DIR
                 (UTC) (F)     (DEG/KT/KT) (MB)    (FT/S) (FT/S/D)
FOLLY BEACH CMAN 2000   80      90/ 20/ 22 1017.0F
BUOY 41004       2000   81 83   70/ 12/ 16 1015.9F   4/ 5   2/ 6
BUOY 41008       2000   85 86  160/ 12/ 14 1015.4F   2/ 6   2/ 90/ 9
5E ST. MARYS GA  2000      86                N/A     2/ 9
FRYING PAN BUOY  NOT AVBL
BUOY 41025       2000          VRB 10/ 14  1019.9F   3/ 7   3/120/ 7
CAPE LOOKOUT NC  2000   80      70/ 14/ 16 1019.4F
BUOY 41002       1903   79 81  200/  8/ 10 1018.7F   3/ 7   3/ 90/ 7
BUOY 41010       2000   83 84  180/ 12/ 14 1016.1R   2/ 8   2/ 90/ 8
BUOY 41012       NOT AVBL
ST AUGUSTINE FL  2000   82     110/  8/  9 1015.5F
CAPERS NEARSHORE 1900   83     120/ 19/ 21   N/A
FRIPP NEARSHORE  NOT AVBL


$$


USA.gov is the U.S. government's official web portal to all federal, state and local government web resources and services.